Temperature
25 24 24 23 22 21 23 25 25 24 24 24 23 23 22 21 20 18 19 19 19 19 19 19 19 19 19 19 18 18 18 18 18 18 18 18 18 18 18 18 18 18 18 18 18 18 18 18 18
25 25 24 23 22 22 24 25 25 24 24 24 23 22 21 20 19 19 19 19 20 19 19 19 19 19 19 19 18 18 18 18 18 18 18 18 18 18 18 18 18 18 18 18 18 18 18 18 18
25 24 24 22 23 23 24 25 25 25 25 24 23 23 22 20 19 19 19 20 20 19 19 19 19 19 19 19 18 18 18 18 18 18 18 18 18 18 18 18 18 18 18 18 18 18 18 18 17
25 25 24 23 24 26 26 25 26 25 25 24 23 22 21 21 20 20 20 20 20 20 19 19 19 19 19 19 18 18 18 18 18 18 18 18 18 18 18 18 18 18 18 18 18 18 18 18 17
26 25 23 23 25 27 27 27 26 25 24 23 22 21 21 21 21 20 20 20 20 20 20 19 19 19 19 19 19 18 18 18 18 18 18 18 18 18 18 18 18 18 18 18 18 18 18 18 17
27 24 23 24 26 27 27 27 26 24 23 23 22 21 20 21 21 20 20 20 20 20 20 20 19 19 19 19 19 19 18 18 18 18 18 18 18 18 18 18 18 18 18 18 18 18 18 18 17
27 24 24 25 26 27 27 27 26 24 24 23 22 21 21 20 21 20 20 20 20 20 20 20 19 19 19 19 19 19 18 18 18 18 18 18 18 18 18 18 18 18 18 18 18 18 18 17 17
28 24 25 25 26 27 28 28 26 25 25 23 23 21 21 21 21 20 20 20 20 20 20 20 19 19 19 19 19 19 18 18 18 18 18 18 18 18 18 18 18 18 18 18 18 18 18 17 17
29 24 25 26 26 27 28 27 27 26 25 24 24 23 22 21 21 20 20 20 20 19 19 19 19 19 19 19 19 19 18 18 18 18 18 18 18 18 18 18 18 18 18 18 18 18 18 18 18
28 24 26 27 28 27 28 27 27 25 24 23 23 22 22 21 21 21 20 20 20 20 19 19 19 19 19 19 19 18 18 18 18 18 18 18 18 18 18 18 18 18 18 18 18 18 18 18 18
28 27 28 29 30 29 28 28 27 25 23 23 23 22 22 22 21 21 21 20 20 20 20 19 19 19 19 19 19 19 18 18 18 18 18 18 18 18 18 18 18 18 18 18 18 18 18 18 18
29 29 30 30 30 30 29 28 27 25 24 24 24 23 22 22 22 22 21 21 20 20 20 20 19 19 19 19 19 19 18 18 18 18 18 18 18 18 18 18 18 18 18 18 18 18 18 18 18
30 30 30 31 30 30 29 28 27 26 25 24 24 23 23 22 22 22 21 21 21 20 20 20 19 19 19 19 19 19 18 18 18 18 18 18 18 18 18 18 18 18 18 18 18 18 18 18 18
30 30 30 30 30 29 28 27 27 25 25 24 24 23 23 23 22 22 21 21 21 21 20 20 20 20 19 19 19 19 19 19 18 18 18 18 18 18 18 18 18 18 18 18 18 18 18 18 18
31 29 29 29 29 29 28 26 26 25 25 24 24 23 23 23 23 23 22 22 21 21 21 20 20 20 20 19 19 19 19 19 19 18 18 18 18 18 18 18 18 18 18 18 18 18 18 18 18
29 28 27 28 28 28 27 25 26 26 25 24 24 24 23 23 23 23 23 22 22 21 21 21 20 20 20 20 19 19 19 19 19 18 18 18 18 18 18 18 18 18 18 18 18 18 18 18 18
27 27 27 28 29 28 26 25 26 26 26 25 24 24 24 24 23 23 23 23 22 22 21 21 20 20 20 20 19 19 19 19 19 18 18 18 18 18 18 18 18 18 18 18 18 18 18 18 18
26 27 28 27 28 28 26 26 26 26 26 25 25 25 24 24 24 24 23 23 22 22 21 21 21 20 20 20 19 19 19 19 19 19 18 18 18 18 18 18 18 18 18 18 18 18 18 18 18
28 28 28 28 29 28 26 26 26 26 26 25 25 24 24 24 24 24 23 23 22 22 21 21 21 20 20 20 19 19 19 19 19 18 18 18 18 18 18 18 18 18 18 18 18 18 18 18 18
28 27 28 29 29 28 26 25 25 25 25 25 25 24 24 24 24 24 23 23 23 22 22 21 21 21 20 20 20 19 19 19 19 19 18 18 18 18 18 18 18 18 18 18 18 18 18 18 17
28 28 28 28 28 27 26 24 24 25 25 25 25 25 24 24 24 24 23 23 23 23 22 22 21 21 20 20 20 19 19 19 19 19 19 19 18 18 18 18 18 18 18 18 18 18 18 18 17
28 29 29 29 26 25 25 23 23 23 24 24 24 24 24 24 24 24 24 23 23 23 23 22 22 21 20 20 20 19 19 19 19 19 19 19 18 18 18 18 18 18 18 18 18 18 18 18 17
29 29 29 28 26 24 24 23 23 23 23 23 24 24 25 25 24 24 24 24 24 23 23 22 22 21 21 20 20 20 19 19 19 19 19 19 18 18 18 18 18 18 18 18 18 18 18 17 17
30 28 27 24 23 23 24 23 23 22 23 24 24 25 25 24 24 24 24 24 24 23 23 22 22 21 21 20 20 20 20 20 19 19 19 19 18 18 18 18 18 18 18 18 18 18 17 17 17
28 24 23 24 22 22 23 23 22 24 24 24 24 25 25 25 24 24 24 24 23 23 23 22 22 21 21 20 20 20 20 20 19 19 19 19 19 19 18 18 18 18 18 18 18 18 18 17 17
27 24 23 24 23 22 23 23 23 24 25 26 25 25 25 25 24 24 24 24 23 23 23 22 22 22 21 21 20 20 20 20 19 19 19 19 19 19 19 18 18 18 18 18 18 18 17 17 17
28 25 23 22 22 22 22 23 23 24 24 24 24 24 24 24 24 24 24 24 23 23 23 22 22 22 21 21 21 20 20 20 19 19 19 19 19 19 19 18 18 18 18 18 18 18 17 17 17
27 26 22 22 22 22 22 23 22 23 23 23 23 23 24 24 24 23 23 23 23 23 23 22 22 22 21 21 21 20 20 20 20 19 19 19 19 19 19 18 18 18 18 18 18 17 17 17 17
27 26 22 20 20 21 21 22 23 23 23 23 23 24 23 23 23 23 23 23 23 23 22 22 22 21 21 21 21 20 20 20 20 19 19 19 19 19 18 18 18 18 18 18 18 17 17 17 17
27 25 22 23 22 20 21 22 24 23 23 23 23 23 23 23 23 23 24 23 22 22 22 22 22 21 21 21 20 20 20 20 19 19 19 19 19 18 18 18 18 18 18 18 17 17 17 17 17
Wind_Speed
12 10 4 2 4 5 7 7 10 11 7 10 12 11 10 8 6 8 5 10 11 8 10 12 14 14 14 14 14 14 15 15 14 15 15 15 15 15 16 16 16 17 17 17 17 17 17 17 17
8 6 2 3 5 5 5 8 13 13 13 15 14 14 11 9 9 10 7 10 12 10 10 12 14 15 15 14 14 15 15 15 14 14 14 15 14 15 15 15 16 16 16 16 16 16 16 16 17
7 5 2 4 4 6 6 9 14 14 13 11 8 8 6 7 9 7 9 13 11 10 11 13 14 14 14 14 14 14 14 14 14 15 14 14 14 14 14 15 16 16 16 16 16 16 16 16 16
3 2 3 5 6 6 10 12 15 15 11 11 11 8 6 6 6 11 15 14 12 9 11 13 15 14 14 14 14 14 14 14 14 14 14 13 14 14 14 15 15 15 15 15 15 15 15 15 14
2 3 5 4 6 7 10 13 14 12 7 11 12 10 6 6 15 18 16 14 13 9 10 13 15 14 14 14 14 13 13 13 13 13 13 13 14 14 14 15 15 15 14 14 14 13 13 13 13
3 4 5 5 7 8 9 13 15 16 16 14 13 10 5 9 15 15 14 13 12 11 10 12 14 14 14 14 13 13 13 13 12 13 13 13 13 14 14 15 14 14 14 13 12 12 11 11 10
4 4 5 6 7 8 9 10 14 15 14 10 11 8 6 8 11 13 13 12 10 10 9 8 10 12 13 13 13 13 12 12 12 12 12 12 13 13 14 14 14 13 13 12 11 10 9 8 8
5 4 4 4 7 7 8 8 11 15 11 14 9 8 8 10 12 14 12 10 10 8 7 7 8 9 10 11 12 12 12 12 12 12 12 12 12 12 12 12 12 12 11 11 10 9 7 7 7
5 5 4 6 7 7 9 12 9 9 12 7 5 9 13 16 16 14 11 8 8 9 7 7 7 8 9 10 10 10 11 10 10 10 11 10 8 9 9 10 11 11 10 9 8 8 6 5 5
5 5 8 7 8 10 12 14 9 8 12 10 12 13 15 16 16 15 13 11 9 9 8 7 7 7 8 8 8 7 7 8 8 7 8 7 7 7 8 9 10 10 9 8 7 5 4 2 2
6 7 6 6 8 12 12 10 8 13 10 15 18 18 16 15 14 14 13 12 11 11 10 9 8 8 7 5 7 6 5 6 6 7 8 7 6 6 6 6 6 6 6 4 3 2 2 2 1
5 4 7 7 10 12 11 9 8 9 12 17 19 18 15 15 14 13 12 11 10 10 9 9 8 7 7 7 6 6 5 5 5 7 8 7 5 4 5 5 5 5 4 4 3 3 3 3 3
6 3 5 8 10 10 11 10 10 10 16 17 17 16 14 14 12 11 11 10 10 10 9 8 8 8 7 6 5 5 4 5 6 7 8 8 5 4 4 4 5 5 5 5 4 4 3 3 3
5 6 4 6 8 9 13 9 8 13 18 18 17 15 14 14 13 11 11 10 10 10 9 8 8 8 7 6 5 4 5 6 6 7 8 9 8 6 4 3 3 4 5 6 5 5 3 2 2
3 5 3 3 6 6 11 6 9 17 18 18 16 14 13 12 14 14 14 13 12 11 10 9 9 8 7 6 5 5 6 6 5 6 8 8 8 7 5 3 3 4 6 5 4 3 2 2 1
5 5 2 2 5 5 9 6 8 14 17 16 15 14 12 11 13 13 14 12 11 11 10 10 9 8 7 5 4 4 5 6 5 6 7 8 8 8 5 3 3 4 4 3 2 2 2 1 1
4 1 2 3 3 5 6 6 9 12 16 15 14 14 13 11 10 11 13 13 13 12 11 9 8 8 7 6 4 4 4 4 5 6 6 7 8 8 6 3 3 3 2 2 3 2 3 2 2
5 3 3 5 4 5 5 6 10 12 15 15 14 13 13 13 13 13 13 13 12 11 11 10 9 8 7 5 4 3 3 3 4 5 6 8 7 7 6 3 3 3 2 1 2 2 2 2 2
6 5 5 6 5 5 6 6 9 10 12 12 12 11 12 13 12 12 13 13 12 10 10 10 9 8 6 4 4 4 3 3 3 3 6 7 8 7 5 3 2 3 2 2 2 2 2 1 1
4 3 4 4 3 4 5 4 6 8 11 13 14 13 12 10 10 12 12 12 13 12 11 10 10 9 8 6 4 3 3 3 3 2 4 6 7 7 6 4 3 3 3 2 2 2 2 1 2
4 6 7 4 2 5 7 2 3 4 4 5 8 10 12 14 15 14 14 13 13 13 13 12 10 9 9 7 4 3 2 1 1 1 2 4 6 7 6 6 4 4 4 3 3 3 4 2 1
6 6 6 4 4 1 4 3 6 6 6 8 8 9 12 13 13 13 14 14 15 14 13 11 10 10 9 8 7 6 5 4 5 3 3 3 5 5 6 6 5 4 4 4 4 3 3 4 2
7 5 2 3 5 3 2 4 5 4 7 10 11 12 13 13 13 14 15 15 14 14 12 11 10 9 9 9 9 7 5 4 3 3 3 3 3 4 5 5 4 4 4 4 3 3 3 3 3
3 3 5 4 5 1 5 5 5 6 10 10 10 11 11 11 11 12 13 11 11 11 11 10 10 9 9 9 9 8 8 6 5 4 4 3 2 2 4 4 4 4 4 4 4 4 4 3 3
3 5 4 4 4 5 4 3 7 7 7 9 10 10 10 10 9 10 11 12 11 12 11 10 10 9 8 9 8 8 9 8 8 6 6 5 3 3 4 4 4 4 4 4 4 4 4 4 3
4 10 8 5 5 5 3 3 6 5 2 4 5 6 7 9 9 10 11 11 11 11 11 10 10 9 8 8 7 7 7 6 5 6 5 5 5 5 5 5 5 5 5 5 4 3 4 3 3
5 5 10 8 3 1 3 3 5 2 3 3 4 4 5 7 9 9 10 10 9 10 10 11 11 9 9 8 7 6 6 6 6 6 6 5 4 4 5 5 5 5 5 5 4 3 4 3 3
7 8 6 6 5 2 3 3 5 5 4 4 5 6 6 6 8 8 8 8 8 8 8 8 9 10 9 8 8 7 6 6 6 5 6 5 5 5 5 5 5 5 5 5 5 4 3 3 3
0 3 5 5 7 7 4 6 7 10 9 9 8 9 9 8 9 9 8 8 7 7 9 9 8 8 7 8 7 7 6 6 6 5 6 6 5 5 5 5 5 5 5 4 4 4 4 4 3
5 5 7 5 4 6 5 6 5 9 9 9 8 8 8 7 8 9 9 9 7 7 7 8 8 7 7 7 6 6 6 6 6 6 6 5 5 5 5 5 5 5 5 4 5 5 4 4 4
Wind_Direction
163 164 166 147 59 56 83 93 97 86 70 72 80 87 84 65 94 124 150 136 129 126 124 117 115 112 110 108 105 105 105 103 102 102 102 103 104 105 107 107 110 113 114 115 116 117 117 117 117
166 168 159 63 78 79 78 98 96 100 115 105 86 84 77 71 88 114 128 136 131 129 127 124 119 115 113 111 107 105 107 106 106 107 106 106 107 106 108 108 111 114 115 115 116 117 118 117 116
177 185 107 71 95 123 116 108 109 109 108 100 93 72 72 101 110 125 145 140 127 124 128 130 124 120 116 114 111 109 109 110 110 109 109 110 111 110 110 110 111 114 115 114 115 117 119 118 116
152 108 52 76 105 121 122 127 120 111 90 87 96 78 72 108 121 132 139 136 128 125 130 132 127 125 122 119 117 115 114 113 113 112 112 112 114 114 113 113 112 113 114 114 115 117 117 117 115
106 86 61 78 108 114 119 122 117 107 94 95 98 100 88 97 119 132 139 137 134 132 134 134 131 129 127 124 120 120 119 116 116 115 115 114 118 118 117 118 116 116 115 116 117 117 119 119 115
85 71 81 94 105 106 113 119 111 105 112 111 110 109 108 126 129 138 139 140 139 139 140 138 135 133 130 128 125 123 123 120 119 119 118 115 117 119 120 121 121 120 119 117 118 119 120 119 116
111 102 121 129 117 115 128 126 121 129 130 129 127 107 122 141 140 136 134 137 136 138 137 137 138 136 134 132 130 128 127 125 124 123 123 121 120 122 122 123 124 123 123 124 124 122 121 119 113
145 114 106 120 122 126 135 120 127 132 125 134 131 127 151 161 143 132 130 132 136 139 143 146 143 139 138 137 135 133 133 133 132 131 130 128 125 125 126 128 129 128 128 129 130 131 129 121 116
125 99 145 162 143 142 131 110 106 107 121 135 113 131 151 145 136 131 130 132 142 147 156 156 153 153 151 147 144 144 142 142 141 140 138 135 132 133 137 138 137 135 135 136 137 139 137 127 126
115 139 185 181 157 148 137 129 128 111 112 108 110 125 139 139 141 143 149 155 158 161 168 167 161 164 167 157 148 154 154 153 152 151 148 146 148 151 148 151 150 148 145 145 149 151 150 144 128
137 162 171 150 151 145 141 138 123 127 134 146 145 148 149 147 149 153 159 163 168 170 169 169 168 168 169 157 157 164 168 165 162 160 161 160 160 159 157 160 162 162 160 164 170 195 221 237 241
119 150 145 147 140 138 141 140 130 143 159 157 153 154 154 158 162 164 166 168 163 163 166 165 163 159 162 162 164 168 172 176 173 175 169 164 163 165 170 171 177 182 186 189 195 210 232 244 240
112 142 147 144 135 132 126 132 129 136 145 150 152 154 159 163 164 166 164 161 156 160 162 159 155 154 151 149 161 163 172 177 179 179 176 169 162 162 167 173 180 196 201 194 193 205 227 238 234
155 146 136 126 118 128 127 127 118 146 149 152 158 163 168 165 162 159 161 162 162 160 157 154 151 156 149 151 155 161 174 175 175 179 180 172 169 168 164 167 179 199 204 201 198 204 203 216 211
102 114 102 117 114 130 112 106 146 155 155 157 163 167 170 168 164 166 169 165 163 161 158 157 156 156 152 150 154 163 170 169 175 179 181 178 174 172 167 167 178 197 204 200 197 199 185 186 174
46 81 124 242 131 149 117 163 179 161 159 162 166 170 170 172 171 168 166 162 160 159 161 165 161 158 158 156 153 154 166 168 175 177 178 180 178 176 167 167 188 198 193 182 173 174 161 162 154
18 107 223 260 168 149 130 179 192 172 164 169 172 172 171 172 174 170 168 166 164 164 165 167 161 163 165 162 153 156 163 171 178 175 176 181 178 177 165 170 190 188 173 175 187 175 167 175 177
239 228 227 231 212 146 156 191 186 182 172 173 175 174 172 177 183 178 172 171 168 166 167 166 165 168 163 154 138 138 148 173 178 179 182 181 183 179 167 170 182 179 155 155 152 163 164 173 176
204 218 235 240 208 157 165 178 184 183 172 174 175 174 176 186 182 174 173 171 167 167 168 168 166 171 162 156 154 158 176 186 185 191 187 183 182 176 168 165 165 163 160 174 174 159 152 156 131
210 217 248 270 195 143 137 168 183 190 185 179 176 175 181 184 179 176 174 172 172 174 176 174 173 175 173 173 169 166 166 179 185 190 184 186 182 180 177 168 172 173 166 173 174 151 144 169 147
245 201 217 213 86 84 99 44 200 205 188 187 182 179 176 182 182 180 178 177 176 179 181 183 181 179 179 171 153 141 109 89 131 197 199 200 187 184 182 177 172 178 174 184 195 176 160 176 202
258 234 209 186 119 197 134 184 243 204 196 203 200 194 193 186 181 182 183 180 183 186 183 180 179 180 181 171 165 166 173 186 203 196 195 202 189 187 187 181 179 179 176 180 192 176 165 157 183
237 241 199 162 132 103 62 140 261 185 201 217 211 202 195 189 184 184 188 187 186 185 182 181 177 180 181 177 176 175 181 191 192 180 182 199 205 202 192 181 177 176 175 175 174 159 154 159 169
230 26 24 57 79 83 230 164 241 211 205 212 210 207 195 185 188 188 186 180 181 179 178 176 175 180 180 178 176 177 180 183 178 182 185 198 206 214 210 186 177 179 179 178 178 170 167 175 173
78 84 21 356 14 245 252 163 234 237 214 197 192 198 191 182 178 177 175 172 174 174 174 175 173 178 179 179 182 183 185 182 185 187 190 191 196 209 213 197 187 187 188 185 179 174 182 182 178
190 143 163 199 213 260 315 223 249 245 236 170 165 168 170 173 175 180 174 170 170 171 171 172 174 177 177 180 187 188 186 184 190 191 189 195 202 209 204 194 193 192 188 189 186 185 195 185 187
178 178 168 145 163 163 278 286 326 18 84 90 110 126 151 163 168 175 167 161 163 167 172 174 173 175 179 182 184 188 189 189 192 194 189 193 200 205 200 193 191 195 193 192 184 191 194 181 186
167 158 102 123 154 207 279 251 213 207 164 142 144 151 150 150 151 156 161 162 160 164 170 171 175 181 184 184 188 193 193 192 192 191 196 198 204 204 193 197 194 195 195 196 186 190 187 170 183
252 116 117 126 151 159 208 259 218 190 180 169 164 156 152 152 149 151 158 160 159 165 170 173 176 178 182 187 192 195 197 198 194 196 203 204 205 196 192 195 191 189 191 189 181 188 176 177 187
179 180 146 157 205 163 164 256 249 187 175 160 153 138 138 143 146 152 154 152 155 163 171 174 177 179 184 187 189 196 199 197 197 203 204 198 200 198 192 187 185 188 186 180 177 185 182 177 184
Height
1501 1501 1502 1504 1506 1516 1518 1512 1507 1507 1509 1510 1509 1511 1514 1518 1522 1531 1530 1529 1529 1529 1528 1528 1528 1528 1528 1528 1528 1528 1528 1529 1529 1529 1529 1529 1529 1529 1529 1529 1529 1530 1532 1533 1535 1536 1538 1540 1541
1501 1502 1504 1505 1514 1530 1523 1511 1509 1509 1511 1511 1513 1515 1516 1521 1523 1526 1528 1530 1530 1530 1530 1530 1530 1530 1530 1530 1530 1530 1531 1531 1531 1531 1531 1531 1531 1531 1531 1531 1531 1532 1534 1535 1537 1538 1540 1542 1544
1502 1503 1505 1507 1518 1525 1521 1511 1509 1511 1511 1510 1514 1517 1520 1524 1526 1527 1529 1531 1531 1531 1532 1532 1532 1532 1532 1532 1532 1532 1533 1533 1533 1533 1533 1533 1533 1533 1534 1534 1534 1535 1536 1538 1539 1541 1543 1544 1546
1503 1505 1506 1513 1518 1510 1509 1509 1508 1511 1514 1514 1515 1520 1524 1527 1527 1528 1530 1532 1532 1533 1533 1534 1534 1534 1534 1534 1535 1535 1535 1535 1535 1535 1535 1535 1535 1535 1536 1536 1537 1538 1539 1540 1542 1543 1545 1547 1548
1503 1505 1512 1519 1514 1507 1505 1507 1508 1510 1514 1517 1517 1523 1527 1529 1529 1530 1532 1533 1534 1534 1535 1535 1535 1535 1536 1536 1536 1537 1537 1537 1537 1537 1537 1536 1536 1537 1538 1539 1539 1540 1542 1543 1544 1546 1548 1549 1551
1504 1506 1521 1526 1515 1508 1507 1508 1509 1513 1518 1520 1521 1524 1530 1531 1531 1533 1534 1535 1535 1535 1536 1537 1537 1537 1537 1538 1538 1539 1539 1539 1539 1539 1539 1539 1539 1540 1540 1541 1542 1543 1544 1545 1547 1548 1550 1552 1554
1504 1510 1518 1519 1515 1512 1509 1508 1510 1514 1518 1520 1522 1525 1531 1533 1533 1534 1535 1537 1537 1538 1538 1538 1539 1539 1539 1540 1540 1540 1541 1541 1541 1542 1542 1542 1542 1542 1543 1544 1545 1546 1547 1548 1549 1551 1553 1555 1556
1502 1508 1515 1516 1515 1513 1508 1508 1511 1513 1518 1522 1522 1525 1529 1533 1534 1535 1537 1538 1539 1539 1539 1540 1540 1540 1541 1541 1542 1542 1543 1543 1543 1544 1544 1544 1544 1545 1546 1547 1548 1548 1549 1551 1552 1553 1555 1557 1558
1500 1511 1519 1515 1512 1511 1507 1509 1513 1515 1517 1521 1522 1523 1527 1532 1534 1536 1538 1539 1540 1541 1541 1541 1542 1542 1542 1543 1543 1544 1544 1545 1545 1546 1546 1547 1547 1547 1548 1549 1550 1551 1552 1553 1554 1556 1557 1559 1560
1497 1512 1509 1502 1501 1505 1507 1508 1512 1517 1519 1522 1524 1527 1530 1532 1534 1535 1537 1538 1540 1541 1541 1542 1543 1543 1544 1544 1545 1545 1546 1547 1547 1548 1548 1549 1549 1550 1550 1551 1552 1553 1554 1555 1557 1558 1559 1560 1562
1494 1501 1497 1497 1499 1502 1506 1509 1511 1516 1521 1521 1523 1527 1530 1532 1534 1535 1537 1538 1539 1541 1542 1542 1543 1544 1545 1545 1546 1546 1547 1548 1548 1549 1550 1550 1551 1551 1552 1553 1554 1555 1556 1557 1558 1559 1561 1561 1562
1493 1494 1494 1495 1498 1501 1504 1508 1512 1513 1517 1520 1522 1525 1529 1532 1533 1535 1536 1538 1539 1540 1542 1543 1543 1544 1545 1546 1547 1547 1548 1549 1549 1550 1551 1551 1552 1553 1553 1554 1556 1557 1557 1558 1559 1560 1561 1562 1563
1493 1495 1495 1495 1497 1499 1503 1506 1509 1514 1517 1521 1524 1527 1529 1531 1533 1535 1537 1538 1539 1540 1541 1543 1544 1544 1545 1546 1547 1548 1548 1549 1550 1550 1551 1552 1553 1553 1554 1555 1556 1557 1558 1559 1560 1560 1561 1562 1563
1493 1494 1495 1496 1498 1501 1503 1508 1510 1515 1517 1521 1524 1526 1528 1530 1532 1534 1536 1538 1539 1540 1541 1543 1544 1545 1546 1546 1547 1548 1549 1549 1550 1551 1552 1552 1553 1554 1554 1555 1556 1557 1558 1559 1560 1560 1561 1562 1563
1492 1495 1498 1498 1500 1504 1505 1513 1512 1514 1517 1520 1523 1525 1528 1530 1531 1533 1534 1536 1538 1539 1541 1542 1544 1545 1546 1547 1547 1548 1549 1550 1550 1551 1552 1553 1553 1554 1554 1555 1556 1557 1558 1559 1559 1560 1561 1561 1562
1494 1502 1509 1501 1499 1503 1510 1522 1513 1514 1516 1519 1522 1524 1527 1529 1530 1532 1533 1535 1537 1539 1540 1542 1544 1545 1546 1547 1548 1548 1549 1550 1550 1551 1552 1552 1553 1554 1554 1555 1556 1557 1558 1558 1559 1559 1560 1560 1561
1506 1513 1512 1504 1498 1501 1508 1517 1510 1512 1514 1517 1520 1522 1524 1527 1529 1531 1532 1534 1536 1538 1540 1541 1543 1544 1546 1547 1548 1548 1549 1550 1550 1551 1551 1552 1553 1553 1554 1554 1555 1556 1557 1557 1558 1558 1559 1559 1560
1516 1513 1510 1507 1498 1500 1506 1509 1507 1510 1512 1514 1517 1520 1522 1524 1526 1528 1531 1533 1535 1538 1539 1540 1542 1543 1545 1546 1547 1548 1549 1549 1550 1550 1550 1551 1551 1552 1553 1553 1554 1555 1556 1556 1557 1557 1558 1558 1558
1501 1506 1507 1500 1493 1499 1505 1508 1509 1510 1512 1514 1516 1518 1520 1522 1524 1526 1529 1532 1534 1536 1538 1539 1541 1542 1544 1545 1546 1547 1547 1548 1549 1549 1550 1550 1550 1551 1551 1552 1553 1553 1554 1555 1555 1556 1556 1557 1557
1498 1505 1504 1496 1491 1499 1507 1510 1508 1509 1509 1509 1511 1514 1517 1520 1522 1525 1527 1530 1532 1534 1536 1538 1539 1541 1542 1544 1545 1546 1547 1547 1548 1548 1548 1549 1549 1549 1550 1550 1551 1552 1552 1553 1554 1554 1554 1555 1555
1496 1501 1500 1500 1496 1500 1509 1519 1514 1511 1511 1512 1512 1512 1513 1516 1518 1521 1524 1526 1529 1532 1534 1536 1537 1539 1540 1542 1544 1545 1546 1546 1547 1547 1547 1547 1548 1548 1548 1549 1549 1550 1550 1551 1552 1552 1553 1553 1554
1499 1488 1489 1494 1507 1518 1513 1537 1520 1513 1511 1510 1510 1511 1511 1513 1515 1518 1521 1523 1526 1529 1532 1534 1536 1537 1539 1540 1541 1542 1543 1544 1544 1545 1546 1546 1546 1546 1547 1547 1548 1548 1548 1549 1549 1550 1551 1551 1552
1487 1481 1485 1491 1504 1517 1517 1530 1525 1513 1513 1508 1505 1505 1507 1509 1511 1514 1517 1520 1523 1527 1529 1532 1534 1535 1537 1538 1539 1541 1541 1542 1543 1544 1544 1544 1545 1545 1545 1545 1546 1546 1547 1547 1548 1548 1549 1549 1550
1477 1483 1490 1500 1513 1532 1521 1527 1528 1513 1506 1502 1500 1502 1503 1506 1509 1512 1515 1519 1522 1525 1527 1530 1531 1533 1534 1536 1537 1538 1539 1540 1541 1542 1542 1543 1543 1543 1543 1543 1544 1544 1545 1545 1545 1546 1546 1547 1547
1480 1503 1525 1529 1540 1536 1517 1521 1521 1499 1492 1493 1494 1497 1500 1503 1506 1509 1513 1516 1519 1523 1525 1528 1529 1530 1532 1534 1535 1536 1537 1538 1539 1540 1540 1541 1541 1541 1541 1542 1542 1542 1543 1543 1544 1544 1544 1545 1545
1483 1499 1526 1538 1541 1533 1518 1521 1509 1492 1489 1489 1491 1493 1496 1500 1503 1506 1509 1513 1517 1520 1523 1525 1527 1528 1530 1531 1533 1534 1535 1536 1537 1538 1539 1539 1539 1540 1540 1540 1540 1540 1541 1541 1541 1542 1542 1542 1542
1481 1491 1495 1517 1524 1533 1527 1515 1502 1491 1491 1491 1491 1493 1495 1498 1501 1504 1508 1511 1515 1519 1521 1523 1525 1526 1527 1529 1530 1532 1533 1534 1535 1536 1536 1537 1537 1538 1538 1538 1538 1538 1538 1539 1539 1539 1540 1540 1540
1469 1478 1499 1516 1533 1540 1530 1521 1515 1500 1496 1493 1492 1492 1495 1497 1500 1504 1506 1509 1513 1516 1519 1522 1523 1524 1525 1526 1528 1529 1530 1531 1532 1533 1534 1534 1535 1535 1535 1535 1535 1536 1536 1537 1537 1537 1538 1538 1538
1474 1480 1494 1511 1516 1533 1540 1526 1493 1491 1489 1489 1489 1491 1493 1496 1499 1501 1505 1509 1512 1514 1517 1519 1520 1521 1523 1524 1526 1527 1528 1528 1529 1530 1531 1532 1532 1532 1533 1533 1533 1534 1534 1535 1535 1535 1535 1536 1536
1467 1475 1489 1507 1514 1519 1526 1519 1482 1482 1483 1485 1488 1490 1493 1496 1497 1500 1502 1505 1509 1512 1514 1516 1517 1519 1520 1522 1523 1524 1525 1525 1526 1527 1528 1529 1529 1530 1530 1530 1531 1531 1531 1532 1533 1533 1533 1533 1534